Regional Weather Roundup
Issued by NWS

Home | Current Version | Previous Version | Graphics & Text | Print | Product List | Glossary On
Versions: 1 2 3 4 5 6 7 8 9 10 11 12 13 14 15 16 17 18 19 20 21 22 23 24 25 26 27 28 29 30 31 32 33 34 35 36 37 38 39 40 41 42 43 44 45 46 47 48 49 50
000
ASUS44 KMEG 280910
RWRTN
TENNESSEE HOURLY STATE WEATHER ROUNDUP
NATIONAL WEATHER SERVICE MEMPHIS TN
400 AM CDT SUN MAY 28 2017

TNZ002-004-019-021-049-052-054-088>092-281000-
WEST TENNESSEE

CITY           SKY/WX    TMP DP  RH WIND       PRES   REMARKS
MEMPHIS INTL   LGT RAIN  67  63  87 E12       29.95R
NWS MEMPHIS      N/A     64 N/A N/A MISG        N/A
JACKSON        RAIN      65  64  97 W8        29.92R
COVINGTON      CLOUDY    64  63  94 S9        29.90F
UNION CITY       N/A     64  63  94 S16G23    29.76F
BOLIVAR        CLOUDY    64  63  94 S5        29.95R FOG
PARIS          CLOUDY    63  63 100 S15       29.82F
HUNTINGDON     CLOUDY    64  63  94 S8        29.85F
SELMER         MOCLDY    63  63 100 S5G13     29.91F
SAVANNAH       CLOUDY    64  63  94 SW8       29.90F
$$

TNZ008-025-027-028-033-062-065-066-281000-
NORTH MIDDLE TENNESSEE

CITY           SKY/WX    TMP DP  RH WIND       PRES   REMARKS
NASHVILLE      CLOUDY    65  62  90 SW10      29.84F
PORTLAND       PTCLDY    64  63  94 SW9       29.82S
CLARKSVILLE    LGT RAIN  64  60  87 S17       29.80F
SMYRNA         CLOUDY    64  63  96 S13G20    29.84F
GALLATIN       PTCLDY    64  63  94 CALM      29.85F
CROSSVILLE     LGT RAIN  61  59  93 W7        29.95F
$$

TNZ061-075-076-078-094-096-097-281000-
SOUTH MIDDLE TENNESSEE

CITY           SKY/WX    TMP DP  RH WIND       PRES   REMARKS
TULLAHOMA      CLOUDY    63  63 100 SE9       29.89F
WINCHESTER     MOCLDY    63  63 100 SE7         N/A
MCMINNVILLE    CLOUDY    63  63 100 CALM      29.90F
COLUMBIA       FOG       64  63  94 S7        29.88F VSB 1
SHELBYVILLE    PTCLDY    63  63 100 CALM      29.89S
$$

TNZ017-018-042-046-047-281000-
NORTHEAST TENNESSEE

CITY           SKY/WX    TMP DP  RH WIND       PRES   REMARKS
TRI CITIES     CLOUDY    63  62  97 SW6       29.91R
ELIZABETHTON   CLOUDY    63  61  94 CALM      29.91R
$$

TNZ012-013-036-069-073-074-281000-
CENTRAL EAST TENNESSEE

CITY           SKY/WX    TMP DP  RH WIND       PRES   REMARKS
KNOXVILLE      CLOUDY    62  60  93 W8        29.90R
OAK RIDGE      CLOUDY    64  61  90 CALM      29.91F
DOWNTOWN KNOXV CLOUDY    63  63 100 SW6       29.91R
GATLINBURG     CLEAR     61  59  94 CALM      29.89S
MORRISTOWN     PTCLDY    63  61  94 CALM      29.90R
JACKSBORO      PTCLDY    61  61 100 CALM      29.92S
$$

TNZ083-085-099-281000-
SOUTHEAST TENNESSEE

CITY           SKY/WX    TMP DP  RH WIND       PRES   REMARKS
CHATTANOOGA    RAIN      65 N/A N/A S9        29.96R
$$

SKY/WX REPORTED AS FAIR MEANS FEW OR NO CLOUDS BELOW
12 THOUSAND FEET.




USA.gov is the U.S. government's official web portal to all federal, state and local government web resources and services.